User: anonymous   Login
Location: Caltech
(34.1382°N, 118.1253°W)
Time: 13:50:56
(UTC-07:00)
Language:

HO-68 - Orbit

View from above orbital plane
View from above orbital plane
View from above satellite
View from above satellite

Ground track
Ground track

The orbit data is extracted from the following two-line orbital elements,

1 36122U 09072B   17177.23267263 -.00000047 +00000-0 -11835-4 0  9991
2 36122 100.0996 203.1608 0007118 209.2979 150.7737 13.16340024361718
Epoch (UTC): 26 June 2017 05:35:02
Eccentricity: 0.0007118
inclination: 100.0996°
perigee height: 1193 km
apogee height: 1204 km
right ascension of ascending node: 203.1608°
argument of perigee: 209.2979°
revolutions per day: 13.16340024
mean anomaly at epoch: 150.7737°
orbit number at epoch: 36171

The dashed part of the orbit path shows where the satellite is in the earth's shadow,  

DLR